contact:dominique.lefevre@mio.osupytheas.fr, maurice.libes@osupytheas.fr, didier.mallarino@osupytheas.fr
Project:EMSO http://www.emso-fr.org/EMSO-France
Depth: 2436.0 m
Title:EMSO Ligure Ouest : Data MII capteur AQUADOPP
Date,Latitude,Longitude,X_East,Y_North,Z_Up,Amplitude_X,Amplitude_Y,Amplitude_Z,Batterie,SoundSpeed,Heading,Pitch,Roll,Pressure,TIS,Speed,Direction
, degrees North, degrees East, m.s-1, m.s-1,m.s-1, 1, 1, 1, Volt, m.s-1, degree, degree, degree, dbar, degree_C, m.s-1, degree
2020-08-07T00:04:03,42.805,6.029,-0.024,0.019,0.021,104.0,108.0,100.0,13.4,1505.3,324.4,-0.7,1.9,2470.5,13.31,0.03,308.4
2020-08-07T00:07:03,42.805,6.029,-0.032,0.014,-0.013,103.0,109.0,101.0,13.4,1505.3,327.4,-0.7,1.8,2470.487,13.32,0.034,293.6
2020-08-07T00:10:03,42.805,6.029,-0.016,0.003,0.004,102.0,109.0,100.0,13.3,1505.3,326.5,-0.7,1.8,2470.443,13.32,0.016,280.6
2020-08-07T00:13:03,42.805,6.029,-0.06,0.025,-0.009,103.0,110.0,100.0,13.4,1505.3,327.5,-0.7,1.8,2470.482,13.32,0.064,292.6
2020-08-07T00:16:03,42.805,6.029,-0.074,0.006,-0.033,102.0,112.0,100.0,13.4,1505.3,323.5,-0.7,1.8,2470.435,13.33,0.074,274.6
2020-08-07T00:19:03,42.805,6.029,-0.031,-0.003,0.018,102.0,110.0,100.0,13.3,1505.3,326.0,-0.7,1.8,2470.466,13.33,0.031,264.5
2020-08-07T00:22:03,42.805,6.029,-0.047,0.023,0.001,105.0,109.0,101.0,13.3,1505.3,324.7,-0.7,1.8,2470.433,13.33,0.052,296.1
2020-08-07T00:25:03,42.805,6.029,-0.035,0.011,0.002,104.0,110.0,101.0,13.4,1505.3,324.7,-0.7,1.8,2470.465,13.33,0.036,287.4
2020-08-07T00:28:03,42.805,6.029,-0.065,0.008,-0.027,105.0,106.0,101.0,13.3,1505.3,326.1,-0.7,1.8,2470.423,13.33,0.065,277.0
2020-08-07T00:31:03,42.805,6.029,-0.033,0.009,-0.02,103.0,109.0,101.0,13.4,1505.3,326.8,-0.7,1.8,2470.438,13.33,0.034,285.3
2020-08-07T00:34:03,42.805,6.029,-0.029,0.0,0.006,102.0,109.0,100.0,13.4,1505.3,325.1,-0.7,1.8,2470.477,13.33,0.028,270.0
2020-08-07T00:37:03,42.805,6.029,-0.035,-0.007,0.0,101.0,110.0,101.0,13.3,1505.3,324.7,-0.7,1.8,2470.46,13.33,0.035,258.7
2020-08-07T00:40:03,42.805,6.029,-0.064,0.025,-0.053,102.0,109.0,100.0,13.4,1505.3,324.4,-0.7,1.8,2470.461,13.33,0.068,291.3
2020-08-07T00:43:03,42.805,6.029,-0.041,0.021,0.01,100.0,111.0,101.0,13.4,1505.3,324.7,-0.7,1.8,2470.453,13.33,0.046,297.1
2020-08-07T00:46:03,42.805,6.029,-0.043,0.017,-0.022,103.0,109.0,100.0,13.4,1505.3,327.6,-0.7,1.8,2470.407,13.33,0.046,291.6
2020-08-07T00:49:03,42.805,6.029,-0.036,0.018,-0.006,103.0,111.0,100.0,13.4,1505.3,323.8,-0.7,1.9,2470.398,13.33,0.04,296.6
2020-08-07T00:52:02,42.805,6.029,-0.059,-0.002,-0.028,102.0,110.0,100.0,13.4,1505.3,323.0,-0.7,1.8,2470.472,13.33,0.059,268.1
2020-08-07T00:55:03,42.805,6.029,-0.022,0.03,0.007,103.0,110.0,101.0,13.4,1505.3,327.7,-0.7,1.8,2470.39,13.33,0.037,323.7
2020-08-07T00:58:03,42.805,6.029,-0.029,0.016,0.006,102.0,109.0,101.0,13.4,1505.3,326.4,-0.7,1.8,2470.418,13.33,0.033,298.9
2020-08-07T01:04:03,42.805,6.029,-0.029,0.006,0.015,106.0,111.0,103.0,13.3,1505.3,324.6,-0.7,1.8,2470.421,13.31,0.029,281.7
2020-08-07T01:07:03,42.805,6.029,-0.057,0.022,-0.006,104.0,109.0,100.0,13.4,1505.3,324.7,-0.7,1.8,2470.406,13.32,0.061,291.1
2020-08-07T01:10:03,42.805,6.029,-0.035,0.019,0.001,102.0,110.0,100.0,13.3,1505.3,326.4,-0.7,1.8,2470.427,13.32,0.039,298.5
2020-08-07T01:13:03,42.805,6.029,-0.043,0.015,0.009,104.0,108.0,100.0,13.3,1505.3,325.9,-0.7,1.8,2470.442,13.32,0.045,289.2
2020-08-07T01:16:03,42.805,6.029,-0.03,0.005,0.015,103.0,107.0,101.0,13.3,1505.3,325.2,-0.7,1.8,2470.43,13.33,0.03,279.5
2020-08-07T01:19:03,42.805,6.029,-0.054,0.009,0.0,102.0,109.0,100.0,13.3,1505.3,324.5,-0.7,1.8,2470.431,13.33,0.054,279.5
2020-08-07T01:22:03,42.805,6.029,-0.037,-0.002,-0.005,103.0,109.0,101.0,13.3,1505.3,323.4,-0.7,1.8,2470.424,13.33,0.037,266.9
2020-08-07T01:25:03,42.805,6.029,-0.035,0.021,-0.007,104.0,108.0,100.0,13.4,1505.3,328.3,-0.7,1.8,2470.394,13.33,0.04,301.0
2020-08-07T01:28:03,42.805,6.029,-0.065,0.007,-0.027,103.0,111.0,100.0,13.4,1505.3,324.5,-0.7,1.9,2470.426,13.33,0.065,276.1
2020-08-07T01:31:03,42.805,6.029,-0.044,0.002,0.011,102.0,110.0,101.0,13.4,1505.3,322.8,-0.7,1.9,2470.39,13.33,0.044,272.6
2020-08-07T01:34:03,42.805,6.029,-0.062,0.034,-0.006,103.0,110.0,99.0,13.3,1505.3,324.7,-0.7,1.8,2470.405,13.33,0.07,298.7
2020-08-07T01:37:03,42.805,6.029,-0.047,0.004,-0.014,103.0,107.0,101.0,13.4,1505.3,324.7,-0.7,1.8,2470.381,13.33,0.047,274.9
2020-08-07T01:40:03,42.805,6.029,-0.025,0.026,0.019,102.0,109.0,101.0,13.3,1505.3,323.3,-0.7,1.8,2470.426,13.33,0.036,316.1
2020-08-07T01:43:03,42.805,6.029,-0.028,0.023,-0.013,103.0,107.0,101.0,13.4,1505.3,325.5,-0.7,1.8,2470.379,13.33,0.036,309.4
2020-08-07T01:46:03,42.805,6.029,0.007,-0.013,-0.017,102.0,110.0,99.0,13.4,1505.3,326.3,-0.7,1.8,2470.388,13.33,0.014,151.7
2020-08-07T01:49:03,42.805,6.029,-0.046,0.014,0.006,103.0,107.0,102.0,13.3,1505.3,324.5,-0.7,1.8,2470.366,13.33,0.048,286.9
2020-08-07T01:52:03,42.805,6.029,-0.048,0.006,-0.008,102.0,109.0,101.0,13.4,1505.3,325.0,-0.7,1.8,2470.368,13.33,0.048,277.1
2020-08-07T01:55:02,42.805,6.029,-0.029,0.03,0.018,102.0,108.0,101.0,13.3,1505.3,324.2,-0.7,1.8,2470.392,13.33,0.041,316.0
2020-08-07T01:58:03,42.805,6.029,-0.05,0.018,0.012,103.0,109.0,100.0,13.4,1505.3,326.1,-0.7,1.8,2470.365,13.33,0.053,289.8
2020-08-07T02:04:02,42.805,6.029,-0.008,0.0,0.006,103.0,109.0,100.0,13.3,1505.3,326.7,-0.8,1.8,2470.416,13.31,0.008,270.0
2020-08-07T02:07:03,42.805,6.029,-0.051,0.039,-0.02,102.0,110.0,100.0,13.4,1505.3,327.7,-0.7,1.8,2470.44,13.32,0.064,307.4
2020-08-07T02:10:03,42.805,6.029,-0.043,0.03,0.027,103.0,108.0,100.0,13.3,1505.3,327.9,-0.7,1.9,2470.41,13.32,0.052,304.9
2020-08-07T02:13:03,42.805,6.029,-0.031,0.029,-0.002,103.0,109.0,101.0,13.3,1505.3,327.3,-0.7,1.8,2470.409,13.32,0.042,313.1
2020-08-07T02:16:03,42.805,6.029,-0.054,0.022,0.002,103.0,109.0,100.0,13.4,1505.3,328.4,-0.7,1.9,2470.44,13.33,0.058,292.2
2020-08-07T02:19:03,42.805,6.029,-0.015,0.021,0.015,103.0,110.0,101.0,13.3,1505.3,326.5,-0.7,1.8,2470.389,13.33,0.025,324.5
2020-08-07T02:22:03,42.805,6.029,-0.038,0.019,-0.006,104.0,110.0,100.0,13.4,1505.3,326.0,-0.7,1.8,2470.412,13.33,0.042,296.6
2020-08-07T02:25:03,42.805,6.029,-0.06,0.03,-0.016,103.0,109.0,101.0,13.3,1505.3,323.1,-0.7,1.8,2470.337,13.33,0.067,296.6
2020-08-07T02:28:03,42.805,6.029,-0.049,0.012,-0.002,103.0,111.0,101.0,13.4,1505.3,326.9,-0.7,1.8,2470.367,13.33,0.05,283.8
2020-08-07T02:31:03,42.805,6.029,-0.036,0.033,-0.008,103.0,109.0,100.0,13.4,1505.3,325.2,-0.7,1.8,2470.405,13.33,0.048,312.5
2020-08-07T02:34:03,42.805,6.029,-0.048,0.007,0.002,103.0,109.0,101.0,13.3,1505.3,327.9,-0.7,1.8,2470.358,13.33,0.048,278.3
2020-08-07T02:37:03,42.805,6.029,-0.03,0.024,0.012,103.0,108.0,100.0,13.3,1505.3,323.7,-0.7,1.8,2470.366,13.33,0.038,308.7
2020-08-07T02:40:03,42.805,6.029,-0.035,0.008,-0.012,102.0,110.0,99.0,13.4,1505.3,325.1,-0.7,1.9,2470.354,13.33,0.035,282.9
2020-08-07T02:43:03,42.805,6.029,-0.014,0.004,0.001,103.0,109.0,101.0,13.3,1505.3,325.0,-0.7,1.8,2470.359,13.33,0.014,285.9
2020-08-07T02:46:03,42.805,6.029,-0.041,0.002,-0.016,102.0,108.0,101.0,13.4,1505.3,324.6,-0.7,1.8,2470.334,13.33,0.041,272.8
2020-08-07T02:49:03,42.805,6.029,-0.065,0.014,-0.026,102.0,111.0,101.0,13.3,1505.3,324.8,-0.7,1.8,2470.378,13.33,0.066,282.2
2020-08-07T02:52:03,42.805,6.029,-0.031,0.016,0.0,102.0,110.0,100.0,13.4,1505.3,326.7,-0.7,1.9,2470.356,13.33,0.034,297.3
2020-08-07T02:55:03,42.805,6.029,-0.044,0.004,0.015,102.0,110.0,101.0,13.3,1505.3,323.4,-0.7,1.9,2470.329,13.33,0.044,275.2
2020-08-07T02:58:03,42.805,6.029,-0.023,0.004,0.006,102.0,110.0,101.0,13.4,1505.3,326.0,-0.7,1.8,2470.377,13.33,0.023,279.9
2020-08-07T03:04:03,42.805,6.029,-0.046,0.024,-0.01,103.0,112.0,101.0,13.3,1505.3,324.2,-0.7,1.8,2470.36,13.31,0.051,297.6
2020-08-07T03:07:03,42.805,6.029,-0.036,0.022,0.005,103.0,109.0,101.0,13.4,1505.3,323.5,-0.7,1.8,2470.393,13.32,0.042,301.4
2020-08-07T03:10:03,42.805,6.029,-0.022,0.023,-0.005,102.0,110.0,100.0,13.3,1505.3,328.1,-0.7,1.8,2470.366,13.32,0.031,316.3
2020-08-07T03:13:03,42.805,6.029,-0.056,0.025,0.011,103.0,111.0,101.0,13.4,1505.3,326.8,-0.7,1.8,2470.342,13.32,0.061,294.1
2020-08-07T03:16:03,42.805,6.029,-0.052,0.031,-0.004,104.0,110.0,101.0,13.4,1505.3,326.7,-0.7,1.8,2470.355,13.33,0.06,300.8
2020-08-07T03:19:03,42.805,6.029,-0.055,0.019,-0.03,104.0,111.0,99.0,13.4,1505.3,326.7,-0.7,1.8,2470.331,13.33,0.058,289.1
2020-08-07T03:22:02,42.805,6.029,-0.039,0.019,0.0,103.0,109.0,99.0,13.3,1505.3,325.0,-0.7,1.9,2470.373,13.33,0.043,296.0
2020-08-07T03:25:03,42.805,6.029,-0.043,0.011,-0.026,102.0,110.0,100.0,13.4,1505.3,328.0,-0.7,1.8,2470.331,13.33,0.044,284.3
2020-08-07T03:28:03,42.805,6.029,-0.047,0.03,-0.004,101.0,109.0,102.0,13.4,1505.3,325.7,-0.7,1.8,2470.339,13.33,0.055,302.6
2020-08-07T03:31:03,42.805,6.029,-0.021,0.003,0.013,104.0,108.0,100.0,13.3,1505.3,323.0,-0.7,1.8,2470.323,13.33,0.021,278.1
2020-08-07T03:34:03,42.805,6.029,-0.042,-0.002,0.005,103.0,109.0,100.0,13.3,1505.3,324.7,-0.7,1.8,2470.337,13.33,0.042,267.3
2020-08-07T03:37:03,42.805,6.029,-0.04,0.01,-0.024,103.0,110.0,100.0,13.3,1505.3,326.6,-0.7,1.8,2470.349,13.33,0.041,284.0
2020-08-07T03:40:03,42.805,6.029,-0.036,0.016,-0.002,103.0,110.0,101.0,13.4,1505.3,325.2,-0.7,1.8,2470.346,13.33,0.039,294.0
2020-08-07T03:43:03,42.805,6.029,-0.037,0.004,-0.003,102.0,110.0,100.0,13.4,1505.3,325.0,-0.7,1.8,2470.348,13.33,0.037,276.2
2020-08-07T03:46:03,42.805,6.029,-0.033,0.023,0.016,103.0,110.0,101.0,13.3,1505.3,326.4,-0.7,1.8,2470.317,13.33,0.04,304.9
2020-08-07T03:49:03,42.805,6.029,-0.057,-0.012,-0.019,104.0,110.0,100.0,13.4,1505.3,326.4,-0.7,1.8,2470.277,13.33,0.058,258.1
2020-08-07T03:52:03,42.805,6.029,-0.031,0.016,-0.012,103.0,108.0,100.0,13.4,1505.3,328.4,-0.7,1.8,2470.32,13.33,0.034,297.3
2020-08-07T03:55:03,42.805,6.029,-0.046,0.009,0.002,103.0,108.0,101.0,13.4,1505.3,326.3,-0.7,1.8,2470.341,13.33,0.046,281.1
2020-08-07T03:58:03,42.805,6.029,-0.013,0.021,0.048,104.0,108.0,101.0,13.3,1505.3,327.5,-0.7,1.9,2470.294,13.33,0.024,328.2
2020-08-07T04:04:03,42.805,6.029,-0.014,0.017,0.001,103.0,109.0,100.0,13.4,1505.3,326.8,-0.8,1.8,2470.351,13.31,0.022,320.5
2020-08-07T04:07:03,42.805,6.029,-0.013,0.008,0.016,104.0,109.0,100.0,13.4,1505.3,323.5,-0.7,1.9,2470.345,13.32,0.015,301.6
2020-08-07T04:10:03,42.805,6.029,-0.037,0.017,-0.01,104.0,109.0,100.0,13.3,1505.3,326.7,-0.7,1.8,2470.338,13.32,0.04,294.7
2020-08-07T04:13:03,42.805,6.029,-0.029,0.012,0.04,102.0,110.0,100.0,13.4,1505.3,324.9,-0.7,1.8,2470.37,13.33,0.031,292.5
2020-08-07T04:16:03,42.805,6.029,-0.034,0.015,-0.001,104.0,106.0,101.0,13.3,1505.3,324.6,-0.7,1.8,2470.334,13.33,0.037,293.8
2020-08-07T04:19:03,42.805,6.029,-0.03,0.008,-0.01,104.0,108.0,101.0,13.4,1505.3,325.7,-0.7,1.8,2470.352,13.33,0.031,284.9
2020-08-07T04:22:03,42.805,6.029,-0.022,0.021,0.017,103.0,108.0,101.0,13.3,1505.3,325.9,-0.7,1.8,2470.341,13.33,0.03,313.7
2020-08-07T04:25:03,42.805,6.029,-0.037,0.016,-0.025,103.0,109.0,100.0,13.4,1505.3,323.8,-0.7,1.8,2470.338,13.33,0.04,293.4
2020-08-07T04:28:03,42.805,6.029,-0.018,0.008,-0.018,102.0,109.0,100.0,13.4,1505.3,325.3,-0.7,1.8,2470.341,13.33,0.019,294.0
2020-08-07T04:31:03,42.805,6.029,-0.04,0.026,-0.017,103.0,107.0,101.0,13.4,1505.3,325.1,-0.7,1.8,2470.322,13.33,0.047,303.0
2020-08-07T04:34:03,42.805,6.029,-0.037,0.027,0.001,101.0,110.0,101.0,13.3,1505.3,324.7,-0.7,1.8,2470.331,13.33,0.045,306.1
2020-08-07T04:37:03,42.805,6.029,-0.022,0.001,-0.002,102.0,109.0,100.0,13.4,1505.3,326.4,-0.7,1.8,2470.341,13.33,0.022,272.6
2020-08-07T04:40:03,42.805,6.029,-0.04,0.005,-0.026,103.0,108.0,100.0,13.4,1505.3,326.0,-0.7,1.8,2470.307,13.33,0.04,277.1
2020-08-07T04:43:03,42.805,6.029,-0.046,0.019,0.013,103.0,108.0,102.0,13.3,1505.3,326.6,-0.7,1.8,2470.301,13.33,0.049,292.4
2020-08-07T04:46:03,42.805,6.029,-0.055,-0.014,-0.008,102.0,107.0,101.0,13.4,1505.3,324.3,-0.7,1.8,2470.317,13.33,0.056,255.7
2020-08-07T04:49:03,42.805,6.029,-0.047,0.029,0.014,103.0,108.0,101.0,13.4,1505.3,324.2,-0.7,1.8,2470.328,13.33,0.055,301.7
2020-08-07T04:52:03,42.805,6.029,-0.05,0.013,-0.021,105.0,108.0,100.0,13.4,1505.3,325.5,-0.7,1.8,2470.305,13.33,0.051,284.6
2020-08-07T04:55:03,42.805,6.029,0.002,-0.001,0.018,102.0,108.0,100.0,13.3,1505.3,327.4,-0.7,1.8,2470.348,13.33,0.002,116.6
2020-08-07T04:58:03,42.805,6.029,-0.025,-0.007,-0.012,103.0,110.0,100.0,13.4,1505.3,325.8,-0.7,1.8,2470.34,13.33,0.025,254.4
2020-08-07T05:04:03,42.805,6.029,-0.008,0.023,0.025,102.0,111.0,101.0,13.3,1505.3,323.8,-0.7,1.8,2470.404,13.31,0.024,340.8
2020-08-07T05:07:03,42.805,6.029,-0.014,0.01,0.0,103.0,109.0,100.0,13.4,1505.3,326.8,-0.7,1.8,2470.376,13.32,0.017,305.5
2020-08-07T05:10:03,42.805,6.029,-0.011,-0.005,-0.023,104.0,109.0,101.0,13.3,1505.3,325.7,-0.7,1.8,2470.351,13.32,0.012,245.6
2020-08-07T05:13:03,42.805,6.029,-0.06,0.017,-0.021,103.0,108.0,100.0,13.4,1505.3,326.1,-0.7,1.8,2470.339,13.33,0.062,285.8
2020-08-07T05:16:03,42.805,6.029,-0.037,0.007,-0.03,102.0,109.0,100.0,13.4,1505.3,325.3,-0.7,1.8,2470.385,13.33,0.037,280.7
2020-08-07T05:19:03,42.805,6.029,-0.021,0.018,0.004,103.0,110.0,101.0,13.4,1505.3,323.6,-0.7,1.9,2470.368,13.33,0.027,310.6
2020-08-07T05:22:03,42.805,6.029,-0.054,0.003,-0.009,103.0,110.0,100.0,13.4,1505.3,325.5,-0.7,1.8,2470.373,13.33,0.054,273.2
2020-08-07T05:25:03,42.805,6.029,-0.031,0.014,-0.029,103.0,109.0,100.0,13.4,1505.3,325.2,-0.7,1.8,2470.365,13.33,0.034,294.3
2020-08-07T05:28:03,42.805,6.029,-0.039,0.02,-0.014,103.0,107.0,102.0,13.4,1505.3,326.0,-0.7,1.8,2470.351,13.33,0.043,297.1
2020-08-07T05:31:03,42.805,6.029,-0.024,-0.006,0.008,102.0,109.0,102.0,13.4,1505.3,325.1,-0.7,1.8,2470.35,13.33,0.024,256.0
2020-08-07T05:34:03,42.805,6.029,-0.037,0.019,-0.07,103.0,107.0,101.0,13.3,1505.3,327.6,-0.7,1.8,2470.367,13.33,0.041,297.2
2020-08-07T05:37:02,42.805,6.029,-0.04,0.004,-0.023,102.0,107.0,100.0,13.3,1505.3,324.8,-0.7,1.8,2470.373,13.33,0.04,275.7
2020-08-07T05:40:03,42.805,6.029,-0.049,0.009,-0.05,103.0,107.0,101.0,13.4,1505.3,324.2,-0.7,1.8,2470.371,13.33,0.049,280.4
2020-08-07T05:43:03,42.805,6.029,-0.041,0.021,-0.041,102.0,108.0,101.0,13.4,1505.3,327.6,-0.7,1.8,2470.356,13.33,0.046,297.1
2020-08-07T05:46:03,42.805,6.029,0.011,0.009,-0.014,104.0,107.0,100.0,13.4,1505.3,326.5,-0.7,1.8,2470.346,13.33,0.014,50.7
2020-08-07T05:49:03,42.805,6.029,-0.004,0.027,-0.006,104.0,108.0,101.0,13.3,1505.3,324.8,-0.7,1.9,2470.363,13.33,0.027,351.6
2020-08-07T05:52:03,42.805,6.029,-0.028,0.003,-0.05,102.0,108.0,100.0,13.4,1505.3,323.2,-0.7,1.8,2470.371,13.33,0.028,276.1
2020-08-07T05:55:03,42.805,6.029,-0.045,0.011,-0.027,103.0,109.0,100.0,13.3,1505.3,325.2,-0.7,1.8,2470.39,13.33,0.046,283.7
2020-08-07T05:58:03,42.805,6.029,-0.01,0.005,-0.018,103.0,107.0,99.0,13.3,1505.3,323.8,-0.7,1.8,2470.345,13.33,0.011,296.6
2020-08-07T06:04:03,42.805,6.029,-0.029,0.021,-0.001,104.0,106.0,100.0,13.4,1505.3,326.0,-0.7,1.8,2470.394,13.32,0.035,305.9
2020-08-07T06:07:03,42.805,6.029,0.002,0.014,0.0,103.0,107.0,100.0,13.4,1505.3,323.4,-0.7,1.8,2470.386,13.32,0.014,8.1
2020-08-07T06:10:03,42.805,6.029,-0.03,0.008,-0.053,103.0,108.0,101.0,13.4,1505.3,326.6,-0.7,1.9,2470.348,13.33,0.031,284.9
2020-08-07T06:13:03,42.805,6.029,-0.042,0.013,-0.028,102.0,107.0,101.0,13.4,1505.3,324.5,-0.7,1.8,2470.413,13.33,0.043,287.2
2020-08-07T06:16:03,42.805,6.029,-0.044,0.014,-0.037,102.0,107.0,101.0,13.4,1505.3,324.3,-0.7,1.8,2470.407,13.33,0.046,287.6
2020-08-07T06:19:03,42.805,6.029,-0.037,0.008,-0.022,102.0,107.0,101.0,13.4,1505.3,326.4,-0.7,1.8,2470.387,13.33,0.037,282.2
2020-08-07T06:22:03,42.805,6.029,-0.014,0.019,-0.011,103.0,106.0,101.0,13.4,1505.3,327.8,-0.7,1.8,2470.416,13.33,0.023,323.6
2020-08-07T06:25:03,42.805,6.029,-0.032,0.035,-0.007,103.0,108.0,100.0,13.4,1505.3,323.4,-0.7,1.8,2470.394,13.33,0.047,317.6
2020-08-07T06:28:03,42.805,6.029,-0.015,0.01,-0.009,103.0,107.0,101.0,13.4,1505.3,325.0,-0.7,1.8,2470.37,13.33,0.018,303.7
2020-08-07T06:31:03,42.805,6.029,-0.03,0.017,0.0,105.0,107.0,100.0,13.4,1505.3,324.9,-0.7,1.9,2470.385,13.33,0.034,299.5
2020-08-07T06:34:03,42.805,6.029,-0.008,0.026,-0.002,103.0,107.0,101.0,13.4,1505.3,327.6,-0.7,1.9,2470.405,13.33,0.027,342.9
2020-08-07T06:37:03,42.805,6.029,-0.036,0.021,-0.036,104.0,107.0,101.0,13.4,1505.3,323.4,-0.7,1.8,2470.375,13.33,0.041,300.3
2020-08-07T06:40:03,42.805,6.029,-0.017,0.034,0.02,101.0,108.0,102.0,13.4,1505.3,325.0,-0.7,1.8,2470.409,13.33,0.038,333.4
2020-08-07T06:43:03,42.805,6.029,-0.008,0.034,0.024,103.0,106.0,100.0,13.4,1505.3,325.6,-0.7,1.8,2470.417,13.33,0.034,346.8
2020-08-07T06:46:03,42.805,6.029,-0.039,0.015,-0.039,104.0,106.0,102.0,13.4,1505.3,324.4,-0.7,1.8,2470.4,13.33,0.041,291.0
2020-08-07T06:49:03,42.805,6.029,-0.034,0.018,-0.013,104.0,107.0,101.0,13.4,1505.3,326.0,-0.7,1.8,2470.413,13.33,0.038,297.9
2020-08-07T06:52:03,42.805,6.029,-0.011,0.032,0.011,104.0,107.0,100.0,13.3,1505.3,328.1,-0.7,1.8,2470.403,13.33,0.033,341.0
2020-08-07T06:55:03,42.805,6.029,-0.009,0.037,0.002,105.0,107.0,100.0,13.4,1505.3,328.6,-0.7,1.8,2470.413,13.33,0.038,346.3
2020-08-07T06:58:03,42.805,6.029,-0.036,0.039,-0.023,103.0,107.0,101.0,13.3,1505.3,327.6,-0.7,1.8,2470.411,13.33,0.053,317.3
2020-08-07T07:04:03,42.805,6.029,-0.012,0.016,-0.01,103.0,106.0,100.0,13.4,1505.3,328.2,-0.7,1.8,2470.431,13.31,0.02,323.1
2020-08-07T07:07:03,42.805,6.029,-0.032,0.02,-0.018,104.0,107.0,100.0,13.4,1505.3,325.4,-0.7,1.8,2470.417,13.32,0.037,302.0
2020-08-07T07:10:03,42.805,6.029,-0.016,0.023,-0.029,103.0,107.0,100.0,13.3,1505.3,326.6,-0.7,1.8,2470.433,13.32,0.028,325.2
2020-08-07T07:13:03,42.805,6.029,-0.018,0.012,-0.028,102.0,107.0,101.0,13.3,1505.3,324.8,-0.7,1.8,2470.458,13.33,0.021,303.7
2020-08-07T07:16:03,42.805,6.029,-0.009,0.01,-0.037,104.0,107.0,99.0,13.4,1505.3,324.6,-0.7,1.8,2470.446,13.33,0.013,318.0
2020-08-07T07:19:03,42.805,6.029,-0.03,0.011,-0.048,102.0,105.0,100.0,13.4,1505.3,326.0,-0.7,1.8,2470.407,13.33,0.031,290.1
2020-08-07T07:22:03,42.805,6.029,-0.031,0.032,-0.023,102.0,107.0,100.0,13.3,1505.3,326.5,-0.7,1.8,2470.429,13.33,0.044,315.9
2020-08-07T07:25:03,42.805,6.029,-0.068,0.016,-0.033,103.0,107.0,100.0,13.4,1505.3,327.0,-0.7,1.8,2470.465,13.33,0.069,283.2
2020-08-07T07:28:03,42.805,6.029,0.009,0.015,-0.036,102.0,107.0,102.0,13.4,1505.3,328.5,-0.7,1.8,2470.431,13.33,0.017,31.0
2020-08-07T07:31:03,42.805,6.029,-0.01,0.033,-0.018,102.0,106.0,101.0,13.4,1505.3,324.5,-0.8,1.9,2470.433,13.33,0.034,343.1
2020-08-07T07:34:03,42.805,6.029,0.0,0.012,0.0,103.0,107.0,101.0,13.4,1505.3,324.4,-0.7,1.9,2470.421,13.33,0.012,0.0
2020-08-07T07:37:03,42.805,6.029,-0.013,0.022,-0.034,103.0,108.0,101.0,13.4,1505.3,325.1,-0.7,1.9,2470.454,13.33,0.025,329.4
2020-08-07T07:40:03,42.805,6.029,-0.031,0.033,-0.021,103.0,106.0,100.0,13.4,1505.3,328.5,-0.7,1.8,2470.434,13.33,0.045,316.8
2020-08-07T07:43:02,42.805,6.029,-0.028,0.019,-0.022,103.0,106.0,100.0,13.4,1505.3,325.1,-0.7,1.8,2470.433,13.33,0.033,304.2
2020-08-07T07:46:03,42.805,6.029,-0.052,0.036,-0.051,103.0,106.0,100.0,13.4,1505.3,326.7,-0.7,1.8,2470.398,13.33,0.063,304.7
2020-08-07T07:49:03,42.805,6.029,0.006,0.003,0.027,103.0,109.0,99.0,13.3,1505.3,324.8,-0.7,1.9,2470.491,13.33,0.006,63.4
2020-08-07T07:52:03,42.805,6.029,-0.042,0.013,-0.042,104.0,107.0,101.0,13.3,1505.3,327.4,-0.7,1.8,2470.453,13.33,0.043,287.2
2020-08-07T07:55:03,42.805,6.029,-0.018,0.012,-0.027,104.0,106.0,101.0,13.3,1505.3,322.5,-0.7,1.8,2470.44,13.33,0.021,303.7
2020-08-07T07:58:03,42.805,6.029,-0.047,0.006,-0.047,102.0,107.0,101.0,13.4,1505.3,326.4,-0.7,1.8,2470.438,13.33,0.047,277.3
2020-08-07T08:04:03,42.805,6.029,-0.001,0.021,0.013,104.0,108.0,100.0,13.3,1505.3,326.4,-0.7,1.9,2470.488,13.31,0.021,357.3
2020-08-07T08:07:03,42.805,6.029,-0.006,0.012,-0.01,104.0,107.0,101.0,13.4,1505.3,323.3,-0.7,1.8,2470.463,13.32,0.013,333.4
2020-08-07T08:10:03,42.805,6.029,-0.025,0.013,-0.017,102.0,108.0,102.0,13.4,1505.3,325.0,-0.7,1.8,2470.434,13.32,0.028,297.5
2020-08-07T08:13:03,42.805,6.029,-0.042,0.038,-0.004,102.0,108.0,101.0,13.3,1505.3,324.2,-0.7,1.8,2470.517,13.33,0.056,312.1
2020-08-07T08:16:03,42.805,6.029,-0.002,0.016,-0.023,103.0,106.0,100.0,13.4,1505.3,327.8,-0.7,1.8,2470.464,13.33,0.016,352.9
2020-08-07T08:19:03,42.805,6.029,0.012,0.007,0.011,104.0,108.0,100.0,13.4,1505.3,323.3,-0.7,1.8,2470.469,13.33,0.013,59.7
2020-08-07T08:22:03,42.805,6.029,0.003,0.025,0.019,103.0,106.0,101.0,13.4,1505.3,323.4,-0.7,1.8,2470.475,13.33,0.025,6.8
2020-08-07T08:25:03,42.805,6.029,-0.011,0.014,-0.014,103.0,108.0,99.0,13.3,1505.3,324.0,-0.7,1.8,2470.501,13.33,0.017,321.8
2020-08-07T08:28:03,42.805,6.029,-0.01,0.008,-0.024,103.0,106.0,101.0,13.4,1505.3,325.9,-0.7,1.8,2470.482,13.33,0.012,308.7
2020-08-07T08:31:03,42.805,6.029,-0.028,0.014,-0.047,103.0,107.0,101.0,13.4,1505.3,324.9,-0.7,1.8,2470.494,13.33,0.031,296.6
2020-08-07T08:34:03,42.805,6.029,-0.042,0.011,-0.005,104.0,108.0,100.0,13.3,1505.3,324.6,-0.7,1.8,2470.481,13.33,0.043,284.7
2020-08-07T08:37:03,42.805,6.029,-0.026,0.028,-0.002,102.0,107.0,101.0,13.3,1505.3,324.7,-0.7,1.8,2470.453,13.33,0.038,317.1
2020-08-07T08:40:03,42.805,6.029,-0.001,0.016,-0.003,103.0,107.0,100.0,13.3,1505.3,324.6,-0.8,1.8,2470.46,13.33,0.016,356.4
2020-08-07T08:43:03,42.805,6.029,-0.027,0.007,-0.004,104.0,108.0,102.0,13.4,1505.3,323.8,-0.7,1.8,2470.462,13.33,0.027,284.5
2020-08-07T08:46:03,42.805,6.029,-0.038,0.014,-0.022,104.0,105.0,100.0,13.4,1505.3,326.5,-0.7,1.8,2470.452,13.33,0.04,290.2
2020-08-07T08:49:03,42.805,6.029,-0.004,-0.002,0.0,103.0,107.0,100.0,13.4,1505.3,326.9,-0.7,1.8,2470.447,13.33,0.004,243.4
2020-08-07T08:52:03,42.805,6.029,-0.029,0.023,-0.011,102.0,104.0,101.0,13.4,1505.3,328.4,-0.7,1.8,2470.475,13.33,0.037,308.4
2020-08-07T08:55:03,42.805,6.029,-0.018,0.022,-0.023,103.0,106.0,101.0,13.4,1505.3,322.9,-0.7,1.8,2470.462,13.33,0.028,320.7
2020-08-07T08:58:03,42.805,6.029,-0.04,0.002,-0.046,102.0,106.0,101.0,13.4,1505.3,324.5,-0.7,1.8,2470.457,13.33,0.04,272.9
2020-08-07T09:04:03,42.805,6.029,-0.011,0.023,-0.015,103.0,106.0,100.0,13.3,1505.3,326.6,-0.7,1.8,2470.483,13.31,0.025,334.4
2020-08-07T09:07:03,42.805,6.029,-0.015,0.04,-0.005,104.0,105.0,101.0,13.3,1505.3,327.1,-0.7,1.8,2470.488,13.32,0.042,339.4
2020-08-07T09:10:03,42.805,6.029,-0.01,0.023,-0.001,102.0,106.0,102.0,13.4,1505.3,328.2,-0.7,1.8,2470.465,13.32,0.025,336.5
2020-08-07T09:13:03,42.805,6.029,-0.021,0.007,-0.034,103.0,107.0,101.0,13.3,1505.3,323.9,-0.7,1.8,2470.457,13.33,0.022,288.4
2020-08-07T09:16:03,42.805,6.029,0.019,0.022,0.0,104.0,106.0,101.0,13.3,1505.3,326.0,-0.6,1.8,2470.503,13.33,0.029,40.8
2020-08-07T09:19:03,42.805,6.029,-0.037,0.015,-0.035,104.0,107.0,101.0,13.3,1505.3,325.9,-0.7,1.8,2470.493,13.33,0.039,292.1
2020-08-07T09:22:03,42.805,6.029,0.0,0.021,0.021,103.0,107.0,102.0,13.4,1505.3,327.2,-0.7,1.8,2470.493,13.33,0.021,0.0
2020-08-07T09:25:03,42.805,6.029,-0.013,0.033,0.013,104.0,106.0,100.0,13.3,1505.3,327.0,-0.7,1.8,2470.449,13.33,0.035,338.5
2020-08-07T09:28:03,42.805,6.029,-0.002,0.0,-0.008,101.0,107.0,101.0,13.4,1505.3,326.2,-0.7,1.8,2470.487,13.33,0.002,270.0
2020-08-07T09:31:03,42.805,6.029,0.009,0.017,0.035,103.0,107.0,103.0,13.3,1505.3,327.9,-0.7,1.8,2470.473,13.33,0.019,27.9
2020-08-07T09:34:03,42.805,6.029,-0.009,0.022,-0.023,105.0,108.0,101.0,13.4,1505.3,326.2,-0.7,1.9,2470.453,13.33,0.023,337.8
2020-08-07T09:37:03,42.805,6.029,-0.006,0.023,-0.011,104.0,107.0,100.0,13.4,1505.3,325.1,-0.7,1.8,2470.491,13.33,0.023,345.4
2020-08-07T09:40:03,42.805,6.029,-0.014,0.003,-0.004,103.0,109.0,100.0,13.4,1505.3,326.7,-0.7,1.8,2470.476,13.33,0.014,282.1
2020-08-07T09:43:03,42.805,6.029,-0.021,0.022,-0.03,104.0,107.0,99.0,13.3,1505.3,324.2,-0.7,1.8,2470.47,13.33,0.03,316.3
2020-08-07T09:46:03,42.805,6.029,0.027,0.013,0.018,105.0,106.0,101.0,13.4,1505.3,327.5,-0.7,1.8,2470.491,13.33,0.029,64.3
2020-08-07T09:49:03,42.805,6.029,0.002,0.011,-0.005,103.0,106.0,101.0,13.4,1505.3,323.5,-0.7,1.8,2470.44,13.33,0.011,10.3
2020-08-07T09:52:03,42.805,6.029,-0.004,0.03,0.038,105.0,107.0,101.0,13.4,1505.3,324.3,-0.7,1.8,2470.46,13.33,0.03,352.4
2020-08-07T09:55:03,42.805,6.029,-0.032,0.026,-0.012,104.0,106.0,101.0,13.4,1505.3,326.8,-0.7,1.8,2470.437,13.33,0.041,309.1